Location: New Frontier Mobile Home Park
(32.8448°N, 116.9675°W)
Time: 23:10:49
(UTC+00:00)

Cosmos 2278 Rocket - Pass Details

Date: 14 July 2020
Orbit: 841 x 846 km, 71.0° (Epoch: 05 August)

Event Time Altitude Azimuth Distance (km) Brightness Sun altitude
Rises 05:21:29 0° 334° (NNW) 3,405 6.6 -24.5°
Reaches altitude 10° 05:23:58 10° 330° (NNW) 2,466 5.7 -24.9°
Maximum altitude 05:29:28 55° 254° (WSW) 1,005 2.6 -25.6°
Enters shadow 05:30:40 46° 212° (SSW) 1,117 2.6 -25.7°
